When you browse on this site, cookies collect data to enhance your experience and personalize the content and advertising you see.
Visit our Privacy Policy to learn more. By continuing to use the site, you agree to this use of cookies and data.
  • In Hungary
  • List of Countries
  • For 7 days
  • Water Temperature
  • Weather Map
  • News
  • Weather Widgets
  • user-avatar
    Login

    Hourly Weather Celestun

    Today, 14 November, Thursday

    Time Temperature Precipitation Wind Pressure Humidity
    00:00 +25°C° 0.1 mm 5 mps 761 mmHg 90%
    01:00 +25°C° 0.6 mm 5 mps 760 mmHg 91%
    02:00 +25°C° 0.6 mm 5 mps 760 mmHg 93%
    03:00 +23°C° 0.6 mm 4 mps 760 mmHg 94%
    04:00 +23°C° 0.3 mm 4 mps 760 mmHg 95%
    05:00 +23°C° 0.3 mm 4 mps 760 mmHg 95%
    06:00 +23°C° 0.3 mm 4 mps 760 mmHg 95%
    07:00 +25°C° 1.4 mm 3 mps 761 mmHg 91%
    08:00 +27°C° 1.4 mm 3 mps 761 mmHg 87%
    09:00 +28°C° 1.4 mm 3 mps 762 mmHg 83%
    10:00 +28°C° 2.2 mm 3 mps 761 mmHg 83%
    11:00 +29°C° 2.2 mm 4 mps 761 mmHg 82%
    12:00 +29°C° 2.2 mm 4 mps 761 mmHg 81%
    13:00 +29°C° 1.3 mm 5 mps 760 mmHg 83%
    14:00 +28°C° 1.3 mm 6 mps 760 mmHg 85%
    15:00 +28°C° 1.3 mm 7 mps 759 mmHg 88%
    16:00 +27°C° 0.3 mm 6 mps 760 mmHg 90%
    17:00 +26°C° 0.3 mm 6 mps 760 mmHg 92%
    18:00 +24°C° 0.3 mm 6 mps 760 mmHg 94%
    19:00 +24°C° 0.1 mm 6 mps 761 mmHg 94%
    20:00 +24°C° 0.1 mm 6 mps 761 mmHg 94%
    21:00 +24°C° 0.1 mm 6 mps 762 mmHg 94%
    22:00 +25°C° 0.7 mm 5 mps 762 mmHg 94%
    23:00 +25°C° 0.7 mm 5 mps 762 mmHg 94%

    Tomorrow, 15 November, Friday

    Time Temperature Precipitation Wind Pressure Humidity
    00:00 +25°C° 0.7 mm 4 mps 762 mmHg 95%
    01:00 +25°C° 0.9 mm 4 mps 761 mmHg 94%
    02:00 +25°C° 0.9 mm 4 mps 761 mmHg 94%
    03:00 +25°C° 0.9 mm 4 mps 761 mmHg 94%
    04:00 +25°C° 0.2 mm 5 mps 761 mmHg 93%
    05:00 +25°C° 0.2 mm 5 mps 762 mmHg 93%
    06:00 +24°C° 0.2 mm 6 mps 762 mmHg 93%
    07:00 +24°C° 0 mm 6 mps 762 mmHg 87%
    08:00 +26°C° 0 mm 6 mps 763 mmHg 81%
    09:00 +27°C° 0 mm 6 mps 763 mmHg 76%
    10:00 +28°C° 0 mm 6 mps 763 mmHg 71%
    11:00 +29°C° 0 mm 6 mps 763 mmHg 66%
    12:00 +29°C° 0 mm 6 mps 762 mmHg 62%
    13:00 +29°C° 0 mm 6 mps 762 mmHg 63%
    14:00 +29°C° 0 mm 6 mps 762 mmHg 65%
    15:00 +28°C° 0 mm 6 mps 761 mmHg 67%
    16:00 +27°C° 0.1 mm 6 mps 761 mmHg 73%
    17:00 +26°C° 0.1 mm 6 mps 762 mmHg 79%
    18:00 +24°C° 0.1 mm 7 mps 762 mmHg 85%
    19:00 +24°C° 0.1 mm 7 mps 762 mmHg 85%
    20:00 +24°C° 0.1 mm 7 mps 763 mmHg 85%
    21:00 +23°C° 0.1 mm 7 mps 763 mmHg 85%
    22:00 +23°C° 0.1 mm 7 mps 763 mmHg 84%
    23:00 +23°C° 0.1 mm 7 mps 763 mmHg 84%

    Day after tomorrow, 16 November, Saturday

    Time Temperature Precipitation Wind Pressure Humidity
    00:00 +23°C° 0.1 mm 6 mps 763 mmHg 84%
    01:00 +23°C° 0.1 mm 6 mps 763 mmHg 83%
    02:00 +23°C° 0.1 mm 6 mps 763 mmHg 81%
    03:00 +23°C° 0.1 mm 6 mps 762 mmHg 80%
    04:00 +22°C° 0 mm 6 mps 762 mmHg 81%
    05:00 +22°C° 0 mm 5 mps 763 mmHg 83%
    06:00 +22°C° 0 mm 5 mps 763 mmHg 85%
    07:00 +23°C° 0.1 mm 5 mps 763 mmHg 79%
    08:00 +24°C° 0.1 mm 6 mps 764 mmHg 74%
    09:00 +26°C° 0.1 mm 6 mps 764 mmHg 68%
    10:00 +27°C° 0 mm 6 mps 764 mmHg 64%
    11:00 +27°C° 0 mm 6 mps 763 mmHg 60%
    12:00 +27°C° 0 mm 6 mps 763 mmHg 56%
    13:00 +27°C° 0 mm 5 mps 762 mmHg 55%
    14:00 +27°C° 0 mm 5 mps 762 mmHg 54%
    15:00 +27°C° 0 mm 5 mps 761 mmHg 53%
    16:00 +25°C° 0 mm 5 mps 761 mmHg 58%
    17:00 +23°C° 0 mm 4 mps 761 mmHg 63%
    18:00 +21°C° 0 mm 4 mps 762 mmHg 69%
    19:00 +21°C° 0 mm 4 mps 762 mmHg 70%
    20:00 +20°C° 0 mm 4 mps 762 mmHg 71%
    21:00 +20°C° 0 mm 3 mps 763 mmHg 73%
    22:00 +19°C° 0 mm 3 mps 762 mmHg 74%
    23:00 +19°C° 0 mm 3 mps 762 mmHg 74%

    17 November, Sunday

    Time Temperature Precipitation Wind Pressure Humidity
    00:00 +19°C° 0 mm 2 mps 762 mmHg 75%
    01:00 +18°C° 0 mm 2 mps 762 mmHg 76%
    02:00 +18°C° 0 mm 2 mps 761 mmHg 76%
    03:00 +18°C° 0 mm 2 mps 761 mmHg 76%
    04:00 +18°C° 0 mm 2 mps 761 mmHg 77%
    05:00 +18°C° 0 mm 2 mps 761 mmHg 78%
    06:00 +18°C° 0 mm 2 mps 761 mmHg 79%
    07:00 +20°C° 0 mm 2 mps 762 mmHg 72%
    08:00 +23°C° 0 mm 2 mps 762 mmHg 64%
    09:00 +25°C° 0 mm 2 mps 762 mmHg 56%
    10:00 +26°C° 0 mm 2 mps 761 mmHg 52%
    11:00 +27°C° 0 mm 2 mps 761 mmHg 48%
    12:00 +29°C° 0 mm 2 mps 760 mmHg 44%
    13:00 +28°C° 0 mm 2 mps 759 mmHg 46%
    14:00 +28°C° 0 mm 3 mps 759 mmHg 49%
    15:00 +27°C° 0 mm 4 mps 758 mmHg 51%
    16:00 +26°C° 0 mm 4 mps 758 mmHg 58%
    17:00 +23°C° 0 mm 4 mps 758 mmHg 64%
    18:00 +21°C° 0 mm 4 mps 759 mmHg 71%
    19:00 +21°C° 0 mm 4 mps 759 mmHg 73%
    20:00 +20°C° 0 mm 3 mps 759 mmHg 75%
    21:00 +20°C° 0 mm 3 mps 760 mmHg 77%
    22:00 +19°C° 0 mm 3 mps 760 mmHg 78%
    23:00 +19°C° 0 mm 3 mps 759 mmHg 80%

    18 November, Monday

    Time Temperature Precipitation Wind Pressure Humidity
    00:00 +19°C° 0 mm 3 mps 759 mmHg 82%
    01:00 +18°C° 0 mm 3 mps 759 mmHg 83%
    02:00 +18°C° 0 mm 3 mps 759 mmHg 84%
    03:00 +18°C° 0 mm 3 mps 758 mmHg 85%
    04:00 +18°C° 0 mm 3 mps 758 mmHg 86%
    05:00 +18°C° 0 mm 3 mps 759 mmHg 86%
    06:00 +18°C° 0 mm 3 mps 759 mmHg 87%
    07:00 +20°C° 0 mm 3 mps 759 mmHg 79%
    08:00 +22°C° 0 mm 3 mps 759 mmHg 71%
    09:00 +25°C° 0 mm 2 mps 760 mmHg 64%
    10:00 +27°C° 0 mm 2 mps 759 mmHg 58%
    11:00 +28°C° 0 mm 2 mps 758 mmHg 53%
    12:00 +30°C° 0 mm 1 mps 758 mmHg 47%
    13:00 +29°C° 0 mm 2 mps 757 mmHg 51%
    14:00 +28°C° 0 mm 2 mps 757 mmHg 55%
    15:00 +27°C° 0 mm 3 mps 756 mmHg 59%
    16:00 +26°C° 0 mm 3 mps 757 mmHg 64%
    17:00 +25°C° 0 mm 3 mps 757 mmHg 68%
    18:00 +24°C° 0 mm 3 mps 758 mmHg 73%
    19:00 +24°C° 0 mm 3 mps 758 mmHg 74%
    20:00 +24°C° 0 mm 3 mps 759 mmHg 74%
    21:00 +24°C° 0 mm 2 mps 759 mmHg 75%
    22:00 +24°C° 0 mm 2 mps 759 mmHg 76%
    23:00 +24°C° 0 mm 2 mps 759 mmHg 76%

    19 November, Tuesday

    Time Temperature Precipitation Wind Pressure Humidity
    00:00 +24°C° 0 mm 1 mps 759 mmHg 77%
    01:00 +24°C° 0.1 mm 1 mps 759 mmHg 78%
    02:00 +24°C° 0.1 mm 2 mps 759 mmHg 78%
    03:00 +24°C° 0.1 mm 2 mps 758 mmHg 79%
    04:00 +22°C° 0.7 mm 3 mps 759 mmHg 81%
    05:00 +22°C° 0.7 mm 4 mps 759 mmHg 84%
    06:00 +21°C° 0.7 mm 4 mps 759 mmHg 86%
    07:00 +23°C° 0.2 mm 5 mps 760 mmHg 82%
    08:00 +25°C° 0.2 mm 5 mps 760 mmHg 78%
    09:00 +26°C° 0.2 mm 6 mps 761 mmHg 74%
    10:00 +27°C° 0 mm 6 mps 760 mmHg 68%
    11:00 +28°C° 0 mm 6 mps 760 mmHg 62%
    12:00 +29°C° 0 mm 5 mps 760 mmHg 57%
    13:00 +29°C° 0 mm 5 mps 760 mmHg 58%
    14:00 +28°C° 0 mm 5 mps 759 mmHg 59%
    15:00 +28°C° 0 mm 5 mps 759 mmHg 60%
    16:00 +27°C° 0 mm 5 mps 760 mmHg 65%
    17:00 +25°C° 0 mm 5 mps 760 mmHg 71%
    18:00 +23°C° 0 mm 5 mps 761 mmHg 77%
    19:00 +23°C° 0 mm 4 mps 761 mmHg 79%
    20:00 +23°C° 0 mm 4 mps 761 mmHg 81%
    21:00 +22°C° 0 mm 4 mps 762 mmHg 83%
    22:00 +22°C° 0.1 mm 3 mps 762 mmHg 84%
    23:00 +22°C° 0.1 mm 3 mps 762 mmHg 85%
    Show more